Погода в Индерке

Россия / Пензенская область     53°14′47″N   46°15′41″E
темп.,
°C
ветер,
м/с
пор.,
м/с
влажн.,
%
обл.,
%
осадки,
мм/ч
давл.,
гПа
погр.,
м
12 апреля, пн
пн1200:00+4ссв4998100 0.0 1031200
03:00+5св399999 0.0 1031215
06:00+5всв41098100 0.0 1032263
09:00+10в488690 0.0 1032337
12:00+16вюв4663100 0.0 1032624
15:00+17вюв4659100 0.0 1032827
18:00+13в388089 0.0 1032155
21:00+10в3790100 0.0 1033108
13 апреля, вт
вт1300:00+9вюв348659 0.0 103364
03:00+8вюв228666 0.0 103332
06:00+7юв268640 0.0 1034104
09:00+14юв475161 0.0 1033523
12:00+17ююв4634100 0.0 1032991
15:00+18ююв453044 0.0 10311131
18:00+14юв26505 0.0 1030100
21:00+9юв375923 0.0 103196
14 апреля, ср
ср1400:00+7юв34665 0.0 103165
03:00+6вюв227040 0.0 103025
06:00+5вюв257016 0.0 103082
09:00+13вюв47445 0.0 1028475
12:00+17юв56335 0.0 10261048
15:00+18юв46345 0.0 10251242
18:00+14юв24544 0.0 102486
21:00+9вюв22695 0.0 102440
15 апреля, чт
чт1500:00+8вюв22795 0.0 102336
03:00+7вюв22870 0.0 102313
06:00+7вюв22890 0.0 102230
09:00+14юв23660 0.0 1021572
12:00+17ююв33440 0.0 10191568
15:00+18ю33375 0.0 10181778
18:00+15ю22500 0.0 101711
21:00+11ююв11580 0.0 101710
16 апреля, пт
пт1600:00+10вюв11661 0.0 101710
03:00+8юв11720 0.0 101610
06:00+9юв117273 0.0 101610
09:00+15ююз1152100 0.0 1015321
12:00+19юз12418 0.0 10141464
15:00+19зсз2340100 0.0 10131681
18:00+14ссз115898 0.1 101411
21:00+11с4106890 0.2 1015261